Bonaire, Netherlands

6:29 PM AST on May 25, 2017 (GMT -0400)
Flamingo

Weather History for TNCB - December, 2013

Change the Weather History Date:

Sunday, December 1, 2013

  Actual Average Record
Temperature  
Mean Temperature 80 °F -  
Max Temperature 86 °F 85 °F 89 °F (1997)
Min Temperature 75 °F 77 °F 75 °F (2011)
Cooling Degree Days 16    
Growing Degree Days 30 (Base 50)    
Moisture  
Dew Point 74 °F    
Average Humidity 81    
Maximum Humidity 94    
Minimum Humidity 66    
Precipitation  
Precipitation 0.00 in - - ()
Sea Level Pressure  
Sea Level Pressure 29.84 in    
Wind  
Wind Speed 6 mph ()    
Max Wind Speed 13 mph    
Max Gust Speed -    
Visibility 6.2 miles    
Events      
Averages and records for this station are not official NWS values.
T = Trace of Precipitation, MM = Missing Value Source: Averaged Metar Reports

Daily Weather History Graph

Daily Weather History Graph

Search for Another Location

Airport or City:

Trip Planner

Search our weather history database for the weather conditions in past years. The results will help you decide how hot, cold, wet, or windy it might be!

Date:

Astronomy

Dec. 01, 2013 Rise Set
Actual Time 6:38 AM AST 6:06 PM AST
Civil Twilight 6:15 AM AST 6:28 PM AST
Nautical Twilight 5:49 AM AST 6:55 PM AST
Astronomical Twilight 5:23 AM AST 7:21 PM AST
Moon 5:06 AM AST (12/1) 5:02 PM AST (12/1)
Length of Visible Light 12h 13m
Length of Day
11h 27m
Waning Crescent, 3% of the Moon is Illuminated
Dec 1
Waning Crescent
Dec 2
New
Dec 9
First Quarter
Dec 17
Full
Dec 25
Last Quarter

Hourly Weather History & Observations

Time (AST) Temp. Heat Index Dew Point Humidity Pressure Visibility Wind Dir Wind Speed Gust Speed Precip Events Conditions
1:00 AM 75.2 °F - 73.4 °F 94% 29.86 in - ENE 4.6 mph - N/A   Unknown
2:00 AM 75.2 °F - 73.4 °F 94% 29.83 in - NE 5.8 mph - N/A   Unknown
3:00 AM 75.2 °F - 73.4 °F 94% 29.83 in - ENE 4.6 mph - N/A   Unknown
4:00 AM 75.2 °F - 73.4 °F 94% 29.80 in - ENE 4.6 mph - N/A   Unknown
5:00 AM 75.2 °F - 73.4 °F 94% 29.80 in - NE 3.5 mph - N/A   Unknown
6:00 AM 75.2 °F - 73.4 °F 94% 29.80 in - ENE 4.6 mph - N/A   Unknown
6:55 AM 75.2 °F - 73.4 °F 94% 29.83 in - ENE 5.8 mph - N/A   Unknown
7:55 AM 80.6 °F 85.4 °F 73.4 °F 79% 29.86 in - ENE 4.6 mph - N/A   Unknown
8:55 AM 84.2 °F 90.9 °F 73.4 °F 70% 29.89 in 6.2 mi East 9.2 mph - N/A   Partly Cloudy
9:55 AM 84.2 °F 90.9 °F 73.4 °F 70% 29.89 in 6.2 mi ENE 11.5 mph - N/A   Partly Cloudy
10:55 AM 86.0 °F 93.4 °F 73.4 °F 66% 29.89 in - East 10.4 mph - N/A   Unknown
11:55 AM 84.2 °F 90.9 °F 73.4 °F 70% 29.86 in - NE 11.5 mph - N/A   Unknown
12:55 PM 86.0 °F 95.1 °F 75.2 °F 70% 29.86 in - East 12.7 mph - N/A   Unknown
2:00 PM 84.2 °F 90.9 °F 73.4 °F 70% 29.83 in - ENE 12.7 mph - N/A   Unknown
3:00 PM 84.2 °F 90.9 °F 73.4 °F 70% 29.80 in 6.2 mi ENE 12.7 mph - N/A   Scattered Clouds
4:00 PM 84.2 °F 89.6 °F 71.6 °F 66% 29.80 in 6.2 mi East 10.4 mph - N/A   Scattered Clouds
5:00 PM 84.2 °F 90.9 °F 73.4 °F 70% 29.80 in - East 8.1 mph - N/A   Unknown
6:00 PM 82.4 °F 88.2 °F 73.4 °F 74% 29.80 in - NE 8.1 mph - N/A   Unknown
7:00 PM 80.6 °F 86.2 °F 75.2 °F 84% 29.80 in - NE 6.9 mph - N/A   Unknown
8:00 PM 80.6 °F 86.2 °F 75.2 °F 84% 29.83 in - ENE 6.9 mph - N/A   Unknown
9:00 PM 80.6 °F 86.2 °F 75.2 °F 84% 29.86 in - ENE 6.9 mph - N/A   Unknown
9:55 PM 78.8 °F - 75.2 °F 89% 29.89 in - ENE 5.8 mph - N/A   Unknown
10:55 PM 78.8 °F - 75.2 °F 89% 29.89 in - ENE 6.9 mph - N/A   Unknown
11:55 PM 78.8 °F - 73.4 °F 83% 29.86 in - ENE 8.1 mph - N/A   Unknown